Weather History for Las Cruces, NM

Change the Weather History Date:

Wednesday, November 7, 2012

  Actual Average Record
Temperature  
Mean Temperature 59 °F -  
Max Temperature 80 °F 63 °F 80 °F (2005)
Min Temperature 38 °F 42 °F 29 °F (2013)
Degree Days  
Heating Degree Days 6    
Growing Degree Days 9 (Base 50)    
Moisture  
Dew Point 20 °F    
Average Humidity 22    
Maximum Humidity 39    
Minimum Humidity 12    
Precipitation  
Precipitation 0.00 in - - ()
Sea Level Pressure  
Sea Level Pressure 30.16 in    
Wind  
Wind Speed 3 mph (SW)    
Max Wind Speed 14 mph    
Max Gust Speed 24 mph    
Visibility 10 miles    
Events      
Averages and records for this station are not official NWS values.
T = Trace of Precipitation, MM = Missing Value Source: NWS Daily Summary

Daily Weather History Graph

Daily Weather History Graph

Search for Another Location

Airport:

Trip Planner

Search our weather history database for the weather conditions in past years. The results will help you decide how hot, cold, wet, or windy it might be!

Date:

Astronomy

Nov. 07, 2012 Rise Set
Actual Time 6:30 AM MST 5:12 PM MST
Civil Twilight 6:04 AM MST 5:37 PM MST
Nautical Twilight 5:35 AM MST 6:06 PM MST
Astronomical Twilight 5:06 AM MST 6:35 PM MST
Moon No Moon Rise 1:01 PM MST (11/7)
Length of Visible Light 11h 33m
Length of Day
10h 41m
Last Quarter, 42% of the Moon is Illuminated
Nov 7
Last Quarter
Nov 13
New
Nov 20
First Quarter
Nov 28
Full
Dec 6
Last Quarter

Hourly Weather History & Observations

Time (MST) Temp. Windchill Dew Point Humidity Pressure Visibility Wind Dir Wind Speed Gust Speed Precip Events Conditions
12:15 AM 49.3 °F - 16.5 °F 27% 30.22 in 10.0 mi Calm Calm - N/A   Clear
12:35 AM 53.4 °F - 18.5 °F 25% 30.22 in 10.0 mi East 4.6 mph - N/A   Clear
12:55 AM 51.3 °F - 19.4 °F 29% 30.21 in 10.0 mi Calm Calm - N/A   Clear
1:15 AM 47.3 °F - 17.6 °F 31% 30.21 in 10.0 mi Calm Calm - N/A   Clear
1:55 AM 47.5 °F - 18.7 °F 32% 30.21 in 10.0 mi Calm Calm - N/A   Clear
2:15 AM 46.2 °F - 18.0 °F 32% 30.21 in 10.0 mi Calm Calm - N/A   Clear
2:35 AM 45.7 °F - 17.6 °F 33% 30.20 in 10.0 mi Calm Calm - N/A   Clear
2:55 AM 45.3 °F - 17.6 °F 33% 30.20 in 10.0 mi Calm Calm - N/A   Clear
3:15 AM 43.5 °F 41.9 °F 17.2 °F 35% 30.20 in 10.0 mi North 3.5 mph - N/A   Clear
6:15 AM 40.1 °F - 16.0 °F 38% 30.22 in 10.0 mi Calm Calm - N/A   Clear
6:35 AM 38.3 °F - 15.1 °F 39% 30.22 in 10.0 mi Calm Calm - N/A   Clear
6:55 AM 38.8 °F - 15.6 °F 39% 30.22 in 10.0 mi Calm Calm - N/A   Clear
7:15 AM 44.2 °F - 17.4 °F 34% 30.23 in 10.0 mi Calm Calm - N/A   Clear
7:35 AM 48.7 °F - 19.2 °F 31% 30.23 in 10.0 mi NNW 3.5 mph - N/A   Clear
7:55 AM 53.8 °F - 20.7 °F 27% 30.24 in 10.0 mi Calm Calm - N/A   Clear
8:15 AM 57.6 °F - 21.7 °F 25% 30.24 in 10.0 mi Calm Calm - N/A   Clear
8:35 AM 60.6 °F - 22.1 °F 23% 30.24 in 10.0 mi Calm Calm - N/A   Clear
8:55 AM 63.5 °F - 23.0 °F 21% 30.25 in 10.0 mi East 3.5 mph - N/A   Clear
9:15 AM 63.7 °F - 22.8 °F 21% 30.25 in 10.0 mi Calm Calm - N/A   Clear
9:35 AM 64.9 °F - 22.6 °F 20% 30.25 in 10.0 mi Calm Calm - N/A   Clear
9:55 AM 65.7 °F - 22.6 °F 19% 30.24 in 10.0 mi East 3.5 mph - N/A   Clear
10:15 AM 65.5 °F - 23.0 °F 20% 30.24 in 10.0 mi Calm Calm - N/A   Clear
10:35 AM 67.5 °F - 22.8 °F 18% 30.24 in 10.0 mi Calm Calm - N/A   Clear
10:55 AM 69.4 °F - 22.1 °F 17% 30.23 in 10.0 mi Calm Calm - N/A   Clear
11:15 AM 71.1 °F - 22.1 °F 16% 30.21 in 10.0 mi South 5.8 mph - N/A   Clear
11:35 AM 73.4 °F - 22.5 °F 15% 30.20 in 10.0 mi South 4.6 mph - N/A   Clear
11:55 AM 73.8 °F - 22.1 °F 14% 30.19 in 10.0 mi South 6.9 mph - N/A   Clear
12:15 PM 73.9 °F - 21.9 °F 14% 30.18 in 10.0 mi SSW 5.8 mph - N/A   Clear
12:35 PM 75.2 °F - 22.1 °F 14% 30.16 in 10.0 mi SW 4.6 mph - N/A   Clear
12:55 PM 76.6 °F - 22.8 °F 13% 30.15 in 10.0 mi SSW 4.6 mph - N/A   Clear
1:15 PM 77.7 °F - 22.3 °F 13% 30.14 in 10.0 mi SSW 3.5 mph - N/A   Clear
1:35 PM 77.5 °F - 22.1 °F 13% 30.14 in 10.0 mi WSW 3.5 mph - N/A   Clear
1:55 PM 79.2 °F - 22.6 °F 12% 30.12 in 10.0 mi SSW 6.9 mph - N/A   Clear
2:15 PM 79.7 °F - 22.6 °F 12% 30.12 in 10.0 mi SSW 8.1 mph - N/A   Clear
2:35 PM 79.9 °F - 22.5 °F 12% 30.11 in 10.0 mi South 10.4 mph - N/A   Clear
2:55 PM 80.1 °F - 22.6 °F 12% 30.10 in 10.0 mi South 8.1 mph - N/A   Clear
3:15 PM 79.9 °F - 22.5 °F 12% 30.10 in 10.0 mi SSW 13.8 mph 17.3 mph N/A   Clear
3:35 PM 79.7 °F - 22.5 °F 12% 30.09 in 10.0 mi WSW 13.8 mph 24.2 mph N/A   Clear
3:55 PM 79.2 °F - 22.6 °F 12% 30.09 in 10.0 mi WSW 11.5 mph - N/A   Clear
4:15 PM 79.0 °F - 22.5 °F 12% 30.09 in 10.0 mi WSW 6.9 mph - N/A   Clear
4:35 PM 78.1 °F - 22.1 °F 12% 30.09 in 10.0 mi WSW 9.2 mph - N/A   Clear
4:55 PM 76.3 °F - 21.9 °F 13% 30.09 in 10.0 mi WSW 6.9 mph - N/A   Clear
5:15 PM 73.4 °F - 21.2 °F 14% 30.09 in 10.0 mi WSW 6.9 mph - N/A   Clear
5:35 PM 70.5 °F - 20.8 °F 15% 30.09 in 10.0 mi SW 6.9 mph - N/A   Clear
5:55 PM 69.4 °F - 20.8 °F 16% 30.09 in 10.0 mi SW 6.9 mph - N/A   Clear
6:15 PM 66.7 °F - 21.2 °F 18% 30.09 in 10.0 mi SW 6.9 mph - N/A   Clear
6:35 PM 66.2 °F - 20.8 °F 18% 30.09 in 10.0 mi SW 6.9 mph - N/A   Clear
6:55 PM 64.2 °F - 21.2 °F 19% 30.10 in 10.0 mi SW 6.9 mph - N/A   Clear
7:15 PM 65.3 °F - 20.7 °F 18% 30.10 in 10.0 mi SSW 6.9 mph - N/A   Clear
7:35 PM 65.1 °F - 20.3 °F 18% 30.11 in 10.0 mi SSW 6.9 mph - N/A   Clear
7:55 PM 61.7 °F - 20.3 °F 20% 30.10 in 10.0 mi SSW 5.8 mph - N/A   Clear
8:15 PM 62.6 °F - 20.1 °F 20% 30.11 in 10.0 mi SSW 6.9 mph - N/A   Clear
8:35 PM 58.3 °F - 19.8 °F 22% 30.11 in 10.0 mi SW 4.6 mph - N/A   Clear
8:55 PM 54.1 °F - 18.7 °F 25% 30.11 in 10.0 mi SW 4.6 mph - N/A   Clear
9:15 PM 55.4 °F - 18.9 °F 24% 30.11 in 10.0 mi WSW 5.8 mph - N/A   Clear
9:35 PM 53.6 °F - 18.7 °F 25% 30.11 in 10.0 mi WSW 4.6 mph - N/A   Clear
9:55 PM 53.6 °F - 19.0 °F 26% 30.11 in 10.0 mi West 4.6 mph - N/A   Clear
10:15 PM 54.0 °F - 19.0 °F 25% 30.11 in 10.0 mi West 5.8 mph - N/A   Clear
10:35 PM 54.0 °F - 19.2 °F 26% 30.11 in 10.0 mi West 6.9 mph - N/A   Clear
10:55 PM 53.6 °F - 19.2 °F 26% 30.10 in 10.0 mi West 5.8 mph - N/A   Clear
11:15 PM 51.4 °F - 18.5 °F 27% 30.10 in 10.0 mi West 8.1 mph - N/A   Clear
11:35 PM 51.8 °F - 18.9 °F 27% 30.09 in 10.0 mi West 8.1 mph - N/A   Clear
11:55 PM 50.9 °F - 18.5 °F 28% 30.09 in 10.0 mi West 6.9 mph - N/A   Clear